Vertical_Velocity
-0 -0 -0 -1 -1 -1 -1 -1 -2 -1 -2 -2 -2 -0 -0 -0 -1 -0 0 -0 -0 -2 -2 -2 -2 -1 -0 1 1 -0 -1 -0 1 0 -2 -2 -2 -1
-0 -0 -0 -0 -0 -1 -1 -2 -2 -2 -2 -2 -0 -1 -1 -1 -0 1 0 -1 -1 -1 -2 -1 -1 -1 -2 -1 -1 -2 -1 0 -1 -0 -2 -3 -1 -1
-1 -1 1 1 -0 -1 -1 -1 -2 -1 -0 -1 -1 -1 -1 -1 -2 -1 -0 0 -1 -2 -1 -0 -1 -1 -0 -0 -1 -2 1 -0 -2 -1 -3 -2 1 0
0 -1 -1 1 -1 1 -1 -1 -1 -1 -1 -0 0 0 -1 -1 0 -1 -1 -2 -1 -1 -2 -2 -1 -1 -0 1 -0 -1 0 -1 -3 -2 -3 1 -1 -0
-1 -0 6 0 2 -0 2 -1 -1 -2 -1 -2 -1 -1 -0 -1 0 -1 -3 -1 -4 -2 -3 -2 -1 -0 -1 1 1 -2 -3 -2 -3 -3 0 -0 -1 -2
-2 -0 -0 -1 -3 -2 1 2 1 -1 -1 -2 -1 -2 -1 -1 -2 -1 -3 -2 -2 -5 -1 -4 -1 -1 -3 -0 4 -1 -4 -3 -3 0 0 -2 -3 -2
1 1 -0 -1 -0 0 -1 0 3 2 1 1 -0 -2 -3 -3 -2 -2 -4 -6 -4 -4 -8 -4 -3 3 -1 -1 0 -2 -1 -3 -2 -2 -1 -2 -4 -3
-2 0 0 0 -2 -1 -0 3 6 4 4 0 -1 -2 -1 -2 -1 0 -2 -3 -5 -2 -10 -3 -5 -5 2 -5 -3 -1 -2 -0 0 -4 -3 -2 -2 -4
2 2 1 1 2 2 2 1 1 -0 0 0 1 -2 -1 -3 -1 -3 -2 -2 -3 -2 -4 -9 -6 -9 -1 -4 -5 -3 -1 -1 -1 -1 -4 -2 -3 -3
3 2 2 1 0 0 1 -0 -0 -1 -2 -3 -1 -6 -6 -3 -0 -2 -2 -0 -5 -4 -1 -4 -4 -6 -13 -1 -7 -5 -2 -2 -0 -2 -2 -2 -3 -3
3 4 3 2 2 1 4 3 2 -1 1 -2 -3 -2 -2 -2 -0 -1 -1 -1 -3 -5 -3 -3 -6 -0 -5 -9 -13 -4 -7 -2 -3 1 -4 -4 -1 -3
3 3 6 3 4 5 3 4 2 -1 1 1 -3 -2 -2 -2 -1 -1 -0 -0 -3 -4 0 -0 -6 1 -0 -5 -19 -11 -9 -4 -2 -2 -6 -5 -2 -4
3 2 3 -0 -1 -0 1 3 -1 3 2 -1 -1 -0 -2 0 -1 -2 -2 -1 -4 -6 0 -1 -5 -3 -5 3 -11 -15 -9 -9 -6 -0 -4 -7 -5 -2
3 0 2 2 3 2 2 0 -1 4 2 0 1 -0 -1 -3 -1 -3 -5 -5 -5 -4 -4 -4 -5 -5 -4 -2 -2 -9 -8 -7 -5 -5 -2 -2 -1 -4
3 3 -1 1 1 1 6 0 3 0 -1 -1 -2 -2 -2 -2 -2 -4 -2 -5 -3 -4 -2 -4 -3 -3 -3 -3 -1 -6 1 -11 -2 0 -2 -1 0 0
2 4 2 3 -1 -1 1 3 -1 1 3 -0 -1 -0 -2 -3 -2 -3 -3 -4 -2 -1 2 -1 -0 -1 -4 -2 -1 -3 -2 -1 -6 -1 0 -3 2 3
2 0 2 -1 4 0 2 6 3 2 -1 -2 -4 -3 -2 -0 -0 -2 -1 -2 -3 -5 -2 -1 -1 -1 -1 -2 -6 -0 -1 -4 2 -3 -1 -1 -2 2
0 -2 10 7 5 0 1 -1 -1 -2 -6 -2 -1 -2 -1 -0 0 -1 0 -1 -4 -2 -2 -2 -2 -4 -4 -5 1 1 -1 -3 -2 -1 1 0 -5 1
5 19 4 3 1 -0 -2 -0 -2 -5 1 -2 -2 -2 -1 0 -1 -1 -0 -1 -2 -2 -3 -2 -1 1 -1 -1 -5 -4 1 2 -3 -4 1 3 -2 -3
-0 15 6 1 -0 -2 -2 1 -1 -0 0 -1 -1 -0 0 1 0 -1 -1 -2 -3 -2 -4 -4 -2 -1 -0 1 -1 -4 -4 -1 0 -1 -1 2 0 0
-0 11 6 -2 3 2 0 1 -1 1 1 1 1 1 -0 0 -1 -1 -1 -1 -2 -2 -3 -6 -6 -1 -2 -0 -1 -0 -4 -5 -3 -1 1 2 -1 -2
-2 -1 4 -2 2 3 1 3 -1 1 3 1 -0 -1 -1 -1 -2 -2 -1 -2 -1 -1 -1 -1 -5 -4 -4 -2 -2 -1 -1 -4 -6 -4 0 4 -1 -2
-0 1 4 2 5 0 -1 3 1 -0 2 1 0 -1 -3 -2 -2 -0 -0 -2 -2 -0 -2 -3 -4 -5 -2 -3 -5 -0 -2 -5 0 -1 -8 1 4 -3
Height
5725 5724 5724 5724 5723 5723 5723 5723 5723 5723 5723 5723 5722 5722 5722 5723 5723 5724 5724 5724 5724 5725 5726 5727 5727 5728 5729 5729 5730 5730 5731 5733 5733 5733 5734 5734 5735 5736
5712 5712 5712 5712 5712 5712 5712 5711 5712 5712 5712 5712 5712 5711 5712 5712 5713 5713 5713 5713 5714 5714 5716 5717 5717 5718 5718 5719 5719 5721 5723 5724 5724 5725 5726 5726 5728 5728
5698 5698 5699 5699 5700 5700 5699 5699 5700 5700 5701 5701 5700 5700 5700 5701 5702 5702 5702 5702 5703 5704 5705 5705 5707 5708 5708 5710 5710 5712 5714 5715 5715 5716 5718 5719 5720 5721
5683 5684 5684 5686 5686 5686 5686 5686 5687 5688 5688 5689 5689 5689 5689 5690 5690 5690 5690 5691 5691 5692 5692 5694 5695 5697 5698 5699 5701 5702 5703 5704 5706 5707 5709 5711 5713 5714
5667 5668 5669 5669 5671 5670 5670 5671 5672 5674 5675 5675 5676 5677 5678 5678 5678 5677 5677 5678 5678 5678 5679 5681 5683 5684 5686 5687 5689 5690 5691 5693 5695 5698 5700 5702 5703 5705
5648 5650 5651 5652 5651 5653 5654 5656 5657 5658 5660 5661 5661 5662 5662 5664 5664 5664 5664 5663 5664 5664 5665 5666 5668 5670 5672 5675 5676 5678 5678 5680 5683 5686 5689 5690 5692 5694
5631 5631 5632 5633 5635 5636 5638 5640 5642 5643 5643 5645 5646 5646 5646 5647 5648 5648 5648 5648 5648 5648 5648 5650 5651 5654 5656 5659 5662 5664 5666 5667 5669 5672 5676 5679 5681 5683
5612 5613 5614 5615 5616 5619 5621 5624 5625 5626 5627 5627 5628 5629 5629 5631 5631 5631 5631 5631 5632 5633 5633 5634 5635 5636 5639 5641 5644 5647 5651 5654 5656 5658 5661 5665 5669 5671
5593 5595 5596 5597 5599 5601 5603 5605 5606 5608 5609 5609 5610 5611 5612 5613 5613 5613 5614 5615 5615 5616 5616 5617 5619 5618 5620 5622 5625 5628 5633 5637 5640 5643 5646 5650 5655 5659
5572 5575 5576 5578 5580 5581 5584 5585 5587 5588 5589 5590 5590 5592 5593 5595 5595 5595 5597 5597 5597 5599 5600 5600 5602 5602 5601 5602 5604 5609 5614 5618 5623 5626 5630 5635 5640 5644
5551 5553 5555 5558 5560 5563 5565 5566 5566 5568 5569 5569 5570 5572 5574 5576 5577 5577 5578 5579 5579 5580 5582 5582 5584 5586 5584 5582 5583 5588 5592 5600 5605 5608 5612 5617 5622 5628
5532 5534 5536 5538 5541 5544 5546 5547 5548 5550 5552 5552 5554 5555 5556 5559 5560 5561 5561 5562 5563 5564 5565 5565 5564 5566 5567 5565 5562 5566 5572 5577 5582 5589 5594 5600 5605 5610
5512 5515 5518 5520 5523 5526 5529 5531 5532 5535 5536 5537 5539 5541 5542 5544 5546 5546 5546 5545 5546 5546 5548 5548 5547 5546 5545 5546 5545 5546 5550 5555 5559 5565 5571 5578 5584 5590
5494 5497 5501 5504 5507 5510 5513 5514 5517 5519 5520 5522 5524 5526 5528 5529 5530 5530 5529 5529 5530 5531 5530 5530 5528 5527 5527 5526 5525 5528 5528 5532 5537 5541 5548 5554 5561 5567
5477 5480 5484 5487 5491 5495 5498 5499 5503 5504 5507 5508 5510 5512 5513 5514 5514 5514 5514 5514 5514 5514 5514 5513 5510 5509 5509 5509 5509 5510 5511 5509 5515 5520 5524 5530 5537 5544
5462 5465 5469 5473 5478 5480 5484 5487 5489 5492 5493 5495 5496 5497 5498 5498 5498 5497 5497 5497 5497 5499 5499 5498 5496 5495 5494 5494 5495 5495 5496 5496 5497 5501 5505 5510 5516 5522
5447 5452 5457 5461 5465 5468 5471 5474 5476 5477 5479 5480 5482 5482 5483 5483 5483 5483 5483 5483 5484 5485 5486 5486 5485 5483 5482 5482 5481 5482 5482 5484 5484 5486 5490 5492 5497 5504
5435 5441 5445 5448 5452 5454 5457 5460 5462 5464 5466 5467 5467 5469 5470 5471 5471 5472 5472 5472 5473 5473 5473 5473 5473 5472 5471 5470 5471 5471 5471 5472 5472 5473 5477 5480 5481 5489
5424 5428 5431 5435 5438 5440 5444 5446 5449 5451 5452 5453 5455 5457 5458 5459 5460 5461 5462 5462 5462 5462 5462 5463 5463 5463 5462 5460 5458 5459 5460 5461 5462 5463 5466 5469 5472 5477
5410 5414 5416 5419 5423 5427 5430 5433 5436 5438 5440 5441 5443 5445 5447 5449 5450 5451 5452 5452 5453 5453 5452 5452 5453 5453 5453 5452 5450 5449 5449 5451 5452 5453 5455 5457 5463 5467
5394 5399 5401 5406 5410 5413 5417 5420 5423 5426 5428 5430 5432 5435 5437 5439 5440 5442 5443 5444 5444 5444 5443 5442 5442 5442 5442 5441 5441 5440 5438 5440 5441 5442 5444 5447 5451 5456
5379 5384 5387 5391 5395 5399 5403 5407 5410 5413 5416 5418 5422 5424 5427 5429 5431 5433 5434 5434 5435 5435 5435 5434 5432 5432 5432 5431 5431 5430 5429 5429 5429 5430 5432 5436 5441 5445
5364 5368 5372 5375 5379 5383 5388 5393 5397 5401 5404 5407 5410 5413 5416 5419 5421 5422 5423 5424 5425 5425 5425 5424 5423 5422 5422 5421 5421 5421 5419 5419 5420 5421 5419 5423 5429 5433